Weather History for Wisconsin Rapids, WI

Change the Weather History Date:

Wednesday, October 3, 2012

  Actual Average Record
Temperature  
Mean Temperature 56 °F -  
Max Temperature 73 °F 63 °F 84 °F (1997)
Min Temperature 41 °F 40 °F 21 °F (1987)
Degree Days  
Heating Degree Days 8    
Growing Degree Days 6 (Base 50)    
Moisture  
Dew Point 44 °F    
Average Humidity 85    
Maximum Humidity 100    
Minimum Humidity 40    
Precipitation  
Precipitation 0.00 in - - ()
Sea Level Pressure  
Sea Level Pressure 29.97 in    
Wind  
Wind Speed 1 mph (ESE)    
Max Wind Speed 7 mph    
Max Gust Speed -    
Visibility 4 miles    
Events Fog    
Averages and records for this station are not official NWS values.
T = Trace of Precipitation, MM = Missing Value Source: NWS Daily Summary

Daily Weather History Graph

Daily Weather History Graph

Search for Another Location

Airport:

Trip Planner

Search our weather history database for the weather conditions in past years. The results will help you decide how hot, cold, wet, or windy it might be!

Date:

Astronomy

Oct. 03, 2012 Rise Set
Actual Time 7:00 AM CDT 6:35 PM CDT
Civil Twilight 6:31 AM CDT 7:04 PM CDT
Nautical Twilight 5:57 AM CDT 7:37 PM CDT
Astronomical Twilight 5:23 AM CDT 8:11 PM CDT
Moon 8:18 PM CDT (10/3) 10:32 AM CDT (10/3)
Length of Visible Light 12h 33m
Length of Day
11h 35m
Waning Gibbous, 88% of the Moon is Illuminated
Oct 3
Waning Gibbous
Oct 8
Last Quarter
Oct 15
New
Oct 21
First Quarter
Oct 29
Full

Hourly Weather History & Observations

Time (CDT) Temp. Windchill Dew Point Humidity Pressure Visibility Wind Dir Wind Speed Gust Speed Precip Events Conditions
12:54 AM 48.9 °F - 46.9 °F 93% 29.96 in 8.0 mi Calm Calm - N/A   Clear
1:17 AM 46.4 °F - 46.4 °F 100% 29.95 in 1.0 mi Calm Calm - N/A   Clear
1:21 AM 44.6 °F - 44.6 °F 100% 29.95 in 0.2 mi Calm Calm - N/A Fog Fog
1:32 AM 44.6 °F 43.1 °F 44.6 °F 100% 29.95 in 2.0 mi SE 3.5 mph - N/A   Partly Cloudy
1:39 AM 46.4 °F - 44.6 °F 93% 29.95 in 6.0 mi Calm Calm - N/A   Partly Cloudy
1:54 AM 46.0 °F - 44.1 °F 93% 29.96 in 1.2 mi Calm Calm - N/A   Clear
2:05 AM 44.6 °F - 44.6 °F 100% 29.95 in 3.0 mi Calm Calm - N/A   Clear
2:08 AM 46.4 °F - 44.6 °F 93% 29.95 in 1.8 mi Calm Calm - N/A   Clear
2:13 AM 46.4 °F - 44.6 °F 93% 29.96 in 0.8 mi Calm Calm - N/A   Clear
2:29 AM 44.6 °F 43.1 °F 42.8 °F 93% 29.96 in 1.2 mi NNW 3.5 mph - N/A   Clear
2:35 AM 44.6 °F - 44.6 °F 100% 29.96 in 3.0 mi Calm Calm - N/A   Clear
2:48 AM 44.6 °F - 42.8 °F 93% 29.95 in 1.8 mi Calm Calm - N/A   Clear
2:54 AM 44.1 °F - 42.1 °F 93% 29.96 in 1.5 mi Calm Calm - N/A   Clear
3:00 AM 42.8 °F - 42.8 °F 100% 29.95 in 0.8 mi Calm Calm - N/A   Clear
3:07 AM 42.8 °F - 42.8 °F 100% 29.96 in 0.5 mi Calm Calm - N/A Fog Fog
3:16 AM 44.6 °F - 42.8 °F 93% 29.96 in 2.0 mi Calm Calm - N/A   Partly Cloudy
3:25 AM 44.6 °F - 42.8 °F 93% 29.96 in 0.8 mi Calm Calm - N/A   Mist
3:35 AM 42.8 °F - 41.0 °F 93% 29.96 in 1.0 mi Calm Calm - N/A   Clear
3:54 AM 44.1 °F 42.5 °F 43.0 °F 96% 29.96 in 0.8 mi NNE 3.5 mph - N/A   Clear
4:02 AM 42.8 °F - 42.8 °F 100% 29.96 in 1.2 mi Calm Calm - N/A   Clear
4:06 AM 42.8 °F - 42.8 °F 100% 29.96 in 3.0 mi Calm Calm - N/A   Clear
4:10 AM 42.8 °F - 41.0 °F 93% 29.96 in 1.5 mi Calm Calm - N/A   Clear
4:16 AM 42.8 °F - 41.0 °F 93% 29.96 in 0.8 mi Calm Calm - N/A   Clear
4:20 AM 42.8 °F - 42.8 °F 100% 29.96 in 1.2 mi Calm Calm - N/A   Clear
4:25 AM 42.8 °F - 42.8 °F 100% 29.96 in 3.0 mi Calm Calm - N/A   Clear
4:35 AM 44.6 °F - 42.8 °F 93% 29.96 in 1.8 mi Calm Calm - N/A   Clear
4:42 AM 44.6 °F - 42.8 °F 93% 29.96 in 3.0 mi Calm Calm - N/A   Clear
4:51 AM 42.8 °F - 41.0 °F 93% 29.97 in 1.8 mi Calm Calm - N/A   Clear
4:54 AM 42.1 °F - 41.0 °F 96% 29.97 in 1.0 mi Calm Calm - N/A   Clear
5:01 AM 42.8 °F - 41.0 °F 93% 29.97 in 0.5 mi Calm Calm - N/A Fog Fog
5:34 AM 41.0 °F - 39.2 °F 93% 29.98 in 1.0 mi Calm Calm - N/A   Mist
5:50 AM 42.8 °F 41.1 °F 39.2 °F 87% 29.98 in 0.5 mi East 3.5 mph - N/A Fog Fog
5:54 AM 43.0 °F 41.3 °F 41.0 °F 93% 29.99 in 0.2 mi East 3.5 mph - N/A Fog Fog
6:54 AM 42.1 °F 40.2 °F 41.0 °F 96% 30.00 in 0.2 mi East 3.5 mph - N/A Fog Fog
7:47 AM 42.8 °F - 42.8 °F 100% 29.99 in 1.5 mi Calm Calm - N/A   Mostly Cloudy
7:52 AM 44.6 °F - 42.8 °F 93% 29.99 in 2.0 mi Calm Calm - N/A   Scattered Clouds
7:54 AM 44.1 °F - 43.0 °F 96% 30.01 in 3.0 mi Calm Calm - N/A   Scattered Clouds
8:54 AM 48.0 °F - 46.0 °F 93% 30.01 in 8.0 mi Calm Calm - N/A   Clear
9:54 AM 57.9 °F - 50.0 °F 75% 30.01 in 10.0 mi Calm Calm - N/A   Clear
10:54 AM 64.0 °F - 51.1 °F 63% 30.00 in 10.0 mi Calm Calm - N/A   Clear
11:54 AM 66.9 °F - 51.1 °F 57% 29.99 in 10.0 mi Calm Calm - N/A   Clear
12:54 PM 70.0 °F - 50.0 °F 49% 29.97 in 10.0 mi ENE 3.5 mph - N/A   Clear
1:54 PM 72.0 °F - 48.9 °F 44% 29.95 in 10.0 mi Calm Calm - N/A   Clear
3:54 PM 72.0 °F - 46.9 °F 41% 29.93 in 10.0 mi South 4.6 mph - N/A   Clear
4:54 PM 72.0 °F - 46.0 °F 40% 29.93 in 10.0 mi SE 6.9 mph - N/A   Clear
5:54 PM 69.1 °F - 44.1 °F 40% 29.94 in 10.0 mi East 6.9 mph - N/A   Clear
6:54 PM 61.0 °F - 45.0 °F 56% 29.96 in 10.0 mi Calm Calm - N/A   Clear
7:54 PM 57.9 °F - 45.0 °F 62% 29.98 in 10.0 mi Calm Calm - N/A   Clear
8:54 PM 55.9 °F - 45.0 °F 67% 29.97 in 10.0 mi ESE 4.6 mph - N/A   Clear
9:54 PM 54.0 °F - 44.1 °F 69% 29.99 in 10.0 mi SE 4.6 mph - N/A   Clear
10:54 PM 53.1 °F - 44.1 °F 71% 29.99 in 10.0 mi SE 4.6 mph - N/A   Clear
11:54 PM 53.1 °F - 44.1 °F 71% 29.99 in 10.0 mi SSE 4.6 mph - N/A   Clear